Weather History for Kamloops, BC

Change the Weather History Date:

Friday, July 19, 2013

  Actual Average Record
Temperature  
Mean Temperature 77 °F -  
Max Temperature 95 °F 82 °F 95 °F (2013)
Min Temperature 59 °F 57 °F 51 °F (1996)
Cooling Degree Days 12    
Growing Degree Days 27 (Base 50)    
Moisture  
Dew Point 51 °F    
Average Humidity 42    
Maximum Humidity 77    
Minimum Humidity 11    
Precipitation  
Precipitation 0.00 in - - ()
Sea Level Pressure  
Sea Level Pressure 29.99 in    
Wind  
Wind Speed 4 mph ()    
Max Wind Speed 9 mph    
Max Gust Speed -    
Averages and records for this station are not official NWS values.
T = Trace of Precipitation, MM = Missing Value Source: Averaged Metar Reports

Daily Weather History Graph

Daily Weather History Graph

Search for Another Location

Airport:

Trip Planner

Search our weather history database for the weather conditions in past years. The results will help you decide how hot, cold, wet, or windy it might be!

Date:

Astronomy

Jul. 19, 2013 Rise Set
Actual Time 5:11 AM PDT 9:04 PM PDT
Civil Twilight 4:29 AM PDT 9:46 PM PDT
Nautical Twilight 3:29 AM PDT 10:44 PM PDT
Astronomical Twilight 1:47 AM PDT 12:23 AM PDT
Moon 6:11 PM PDT (7/19) 1:59 AM PDT (7/19)
Length of Visible Light 17h 17m
Length of Day
15h 52m
Waxing Gibbous, 87% of the Moon is Illuminated
Jul 19
Waxing Gibbous
Jul 22
Full
Jul 29
Last Quarter
Aug 6
New
Aug 14
First Quarter

Hourly Weather History & Observations

Time (PDT) Temp. Heat Index Dew Point Humidity Pressure Visibility Wind Dir Wind Speed Gust Speed Precip Events Conditions
12:00 AM 71.6 °F - 53.6 °F 53% 30.05 in 40.0 mi East 8.1 mph - N/A   Partly Cloudy
1:00 AM 69.8 °F - 51.8 °F 53% 30.06 in 40.0 mi East 2.3 mph - N/A   Partly Cloudy
2:00 AM 66.2 °F - 53.6 °F 64% 30.06 in 40.0 mi East 4.6 mph - N/A   Clear
3:00 AM 64.4 °F - 53.6 °F 68% 30.06 in 40.0 mi Calm Calm - N/A   Clear
4:00 AM 62.6 °F - 53.6 °F 72% 30.07 in 40.0 mi NE 2.3 mph - N/A   Partly Cloudy
5:00 AM 62 °F - 54 °F 68% 30.09 in 37 mi WSW 1.2 mph - -   Partly Cloudy
5:00 AM 62.6 °F - 53.6 °F 72% 30.09 in 40.0 mi Calm Calm - N/A   Mostly Cloudy
6:00 AM 62.6 °F - 55.4 °F 77% 30.09 in 40.0 mi SE 3.5 mph - N/A   Scattered Clouds
7:00 AM 66.2 °F - 53.6 °F 64% 30.09 in 40.0 mi Variable 2.3 mph - N/A   Partly Cloudy
8:00 AM 68.0 °F - 53.6 °F 60% 30.10 in 40.0 mi SSW 2.3 mph - N/A   Partly Cloudy
9:00 AM 71.6 °F - 53.6 °F 53% 30.09 in 40.0 mi SSW 3.5 mph - N/A   Clear
10:00 AM 75.2 °F - 53.6 °F 47% 30.07 in 40.0 mi South 2.3 mph - N/A   Clear
11:00 AM 79 °F - 52 °F 29% 30.05 in 37 mi South 4.6 mph - -   Scattered Clouds
11:00 AM 78.8 °F - 51.8 °F 39% 30.04 in 40.0 mi South 4.6 mph - N/A   Partly Cloudy
12:00 PM 84.2 °F - 48.2 °F 29% 30.02 in 40.0 mi South 4.6 mph - N/A   Partly Cloudy
1:00 PM 86.0 °F - 46.4 °F 25% 29.99 in 40.0 mi SSW 4.6 mph - N/A   Partly Cloudy
2:00 PM 89.6 °F - 44.6 °F 21% 29.96 in 40.0 mi South 4.6 mph - N/A   Partly Cloudy
3:00 PM 93.2 °F - 44.6 °F 19% 29.93 in 40.0 mi West 8.1 mph - N/A   Scattered Clouds
4:00 PM 93.2 °F - 44.6 °F 19% 29.92 in 40.0 mi WSW 3.5 mph - N/A   Partly Cloudy
5:00 PM 94 °F - 45 °F 11% 29.89 in 37 mi NNW 5.8 mph - -   Scattered Clouds
5:00 PM 95.0 °F - 44.6 °F 18% 29.89 in 40.0 mi NNW 3.5 mph - N/A   Scattered Clouds
6:00 PM 93.2 °F - 46.4 °F 20% 29.87 in 40.0 mi South 2.3 mph - N/A   Scattered Clouds
7:00 PM 89.6 °F - 46.4 °F 22% 29.86 in 40.0 mi SE 3.5 mph - N/A   Scattered Clouds
8:00 PM 89.6 °F - 50.0 °F 26% 29.85 in 40.0 mi ESE 3.5 mph - N/A   Scattered Clouds
9:00 PM 84.2 °F - 50.0 °F 30% 29.86 in 40.0 mi East 9.2 mph - N/A   Partly Cloudy
10:00 PM 80.6 °F 80.5 °F 55.4 °F 42% 29.88 in 40.0 mi East 9.2 mph - N/A   Partly Cloudy
11:00 PM 76 °F - 56 °F 39% 29.89 in 37 mi East 8.1 mph - -  
11:00 PM 77.0 °F - 55.4 °F 47% 29.89 in 40.0 mi East 5.8 mph - N/A   Clear